Regional Weather Roundup
Issued by NWS

Home | Current Version | Previous Version | Graphics & Text | Print | Product List | Glossary Off
Versions: 1 2 3 4 5 6 7 8 9 10 11 12 13 14 15 16 17 18 19 20 21 22 23 24 25 26 27 28 29 30 31 32 33 34 35 36 37 38 39 40 41 42 43 44 45 46 47 48 49 50

000
ASUS43 KMKX 311421
RWRWI

WISCONSIN REGIONAL WEATHER ROUNDUP
NATIONAL WEATHER SERVICE MILWAUKEE/SULLIVAN WI
900 AM CDT MON AUG 31 2015

NOTE: "FAIR" INDICATES FEW OR NO CLOUDS BELOW 12,000 FEET WITH NO
SIGNIFICANT WEATHER AND/OR OBSTRUCTIONS TO VISIBILITY.

WIZ001-002-006>008-014>016-023>028-311500-
NORTHWEST WISCONSIN

CITY           SKY/WX    TMP DP  RH WIND       PRES   REMARKS
SUPERIOR ARPT  SUNNY     66  65  97 CALM      29.88S
ASHLAND        SUNNY     70  66  87 S7        29.92S
HAYWARD        CLOUDY    68  64  87 S12       29.96F
SIREN          CLOUDY    69  65  89 SW8       29.94R
CUMBERLAND     CLOUDY    64  63  94 S6        29.97F FOG
RICE LAKE      CLOUDY    65  64  96 S6        30.00S FOG
CHETEK         CLOUDY   N/A N/A N/A MISG      29.99S FOG
LADYSMITH      CLOUDY    65  64  97 S6        30.02S FOG
EAU CLAIRE     CLOUDY    66  64  93 S5        29.99S FOG
MENOMONIE      CLOUDY    67  67  99 SE6       29.99S FOG
NEW RICHMOND   CLOUDY    68  67  96 S8        29.96F FOG
OSCEOLA        CLOUDY    69  69 100 S8        29.97S FOG
$$

WIZ003>005-009-010-017-018-311500-
NORTH CENTRAL WISCONSIN

CITY           SKY/WX    TMP DP  RH WIND       PRES   REMARKS
MANITOWISH WTR CLOUDY    65  63  95 SW9       30.00S
ARBOR VITAE    CLOUDY    66  63  90 SW6       30.01R
WOODRUFF       CLOUDY    66  63  90 SW6       30.01R
RHINELANDER    CLOUDY    66  63  90 W7        30.03S
EAGLE RIVER    PTSUNNY   67  63  89 SW9       30.01S
LAND O LAKES   SUNNY     68  62  80 SW7       30.01S
PHILLIPS       CLOUDY    64  64 100 SW8       30.01R FOG
TOMAHAWK       FOG       64  63  97 CALM      30.03S VSB 3/4
MEDFORD        FOG       63  63 100 SW8       30.03R VSB 1/4
MERRILL        CLOUDY    65  65 100 SW3       30.04S FOG
$$

WIZ029-030-035-036-043>047-311500-
CENTRAL WISCONSIN

CITY           SKY/WX    TMP DP  RH WIND       PRES   REMARKS
WAUSAU         CLOUDY    63  62  97 CALM      30.03R FOG
MOSINEE        FOG       63  63 100 S5        30.05R VSB 1/2
MARSHFIELD     FOG       64  61  90 SW5       30.04R VSB 1/4
STEVENS POINT  FOG       61  61 100 SW3       30.05S VSB 1
WAUPACA        CLOUDY    66  65  96 SW3       30.04S FOG
WAUTOMA        CLOUDY    65  65 100 CALM      30.05S
WISC RAPIDS    CLOUDY    65  63  93 SW3       30.05S FOG
CAMP DOUGLAS   PTSUNNY   66  66 100 S5        30.03S FOG
$$

WIZ011>013-019>022-031-037>040-048>050-311500-
NORTHEAST WISCONSIN

CITY           SKY/WX    TMP DP  RH WIND       PRES   REMARKS
ANTIGO         FOG       62  62 100 W5        30.05R VSB 1/2
SHAWANO        FOG       65  64  95 SW5       30.03S VSB 3/4
OCONTO         CLOUDY    63  63 100 W8        30.02R
STURGEON BAY   CLOUDY    66  63  88 W13       30.04S
GREEN BAY      PTSUNNY   68  66  93 SW7       30.03S FOG
MANITOWOC      SUNNY     69  65  86 MISG      30.04S
APPLETON       CLOUDY    64  64 100 SW7       30.03S FOG
CLINTONVILLE   CLOUDY    63  63 100 SW5       30.03F FOG
OSHKOSH        CLOUDY    66  63  90 SW7       30.05R
$$

WIZ032>034-041-042-053>061-311500-
SOUTHWEST WISCONSIN

CITY           SKY/WX    TMP DP  RH WIND       PRES   REMARKS
LA CROSSE      CLOUDY    66  64  93 S7        30.01S FOG
SPARTA         CLOUDY    67  65  91 S3        30.03S FOG
VIROQUA          N/A     65  65 100 S5        30.05S VSB 1/2
BOSCOBEL       FOG       62  61  96 CALM      30.04S VSB<1/4
PRAIRIE DU CHI MOSUNNY   63  62  96 CALM      30.03F FOG
PLATTEVILLE    SUNNY     65  65 100 S6        30.06S
$$

WIZ056-057-062-063-064-067-068-311500-
SOUTH CENTRAL WISCONSIN

CITY           SKY/WX    TMP DP  RH WIND       PRES   REMARKS
REEDSBURG      CLOUDY    66  65  97 S5        30.04F
BARABOO/DELLS  CLOUDY    67  64  91 S5        30.05S
LONE ROCK      PTSUNNY   66  64  93 E5        30.06S
MINERAL POINT  SUNNY     66  64  94 S6        30.07S FOG
MADISON        CLOUDY    66  64  93 S5        30.06S
MIDDLETON      CLOUDY    67  67 100 SW5       30.07S
WATERTOWN      CLOUDY    62  62 100 CALM      30.07S FOG
MONROE         SUNNY     66  64  94 S7        30.07S FOG
JANESVILLE     FOG       64  63  94 CALM      30.07S VSB 1/4
$$

WIZ051-052-058>065-066-070>072-311500-
SOUTHEAST WISCONSIN

CITY           SKY/WX    TMP DP  RH WIND       PRES   REMARKS
MILWAUKEE      MOSUNNY   66  64  93 SW5       30.07S FOG
WAUKESHA       SUNNY     63  63 100 CALM      30.08S FOG
MILWAUKEE/TIMM SUNNY     64  63  94 SW5       30.07S
RACINE         SUNNY     68  64  87 SW3       30.09R
BURLINGTON     PTSUNNY   62  62  99 CALM      30.08S FOG
KENOSHA        SUNNY     66  65  96 SW3       30.09R
FOND DU LAC    CLOUDY    66  64  93 SW7       30.06R
SHEBOYGAN      SUNNY     66  65  96 S6        30.05S
WEST BEND      PTSUNNY   64  64 100 CALM      30.06F
JUNEAU         CLOUDY    62  61  99 CALM      30.08S FOG
$$

LSZ147-162-311500-
LAKE SUPERIOR

STATION/POSITION TIME  TEMP    WIND        PRES    WAVE
                       AIR SEA DIR/SP/G            HT/PER
                 (UTC) (F)     (DEG/KT/KT) (MB)    (FT/S)
W MID LAKE BUOY  1350   57 54  170/  4/  4 1012.5S   1
DEVILS ISLAND    1400   66     200/  6/  8 1012.3R
PORT WING        1340   69     190/  6/ 13 1012.5R
SAXON HARBOR     1300   67     170/  1/  7 1012.5F
$$

LMZ867-665-643>646-311500-
LAKE MICHIGAN

STATION/POSITION TIME  TEMP    WIND        PRES    WAVE
                       AIR SEA DIR/SP/G            HT/PER
                 (UTC) (F)     (DEG/KT/KT) (MB)    (FT/S)
CHAMBERS ISLAND  1300   62     200/  4/  7 1015.9R
S GREEN BAY BUOY 1300   63 63  240/ 10/ 12 1017.6R
N MID LAKE BUOY  1350   63 65  210/ 12/ 14 1015.5R   2/ 4
NORTHPORT PIER   1300   67     230/  6/  9 1015.6S
SHEBOYGAN LAKESH 1400   63     170/  8/  9 1017.6F
PORT WASHINGTON  1300   61     190/  4/  5 1018.6R
ATWATER BUOY     1300   56 49   CALM  /  2 1019.4R
MILWAUKEE LAKESH 1310   64     220/  5/  5   N/A
S MID LAKE BUOY  1350   68 68  220/  4/  4 1018.2R   0
KENOSHA   LAKESH 1400   63     210/  2/  2 1018.3S
$$

TC  - TEMPERATURE IN CELSIUS
VSB - VISIBILITY IN STATUTE MILES
WCI - WIND CHILL INDEX
HX  - HEAT INDEX



USA.gov is the U.S. government's official web portal to all federal, state and local government web resources and services.